Time,TemperatureF,DewpointF,PressureIn,WindDirection,WindDirectionDegrees,WindSpeedMPH,WindSpeedGustMPH,Humidity,HourlyPrecipIn,Conditions,Clouds,dailyrainin,SoftwareType,DateUTC
2013-09-26 00:00:00,55.1,51.6,29.90,WNW,301,2.0,15.0,88,0.00,,,0.39,Wunderground v.1.15,2013-09-26 03:00:00,
2013-09-26 00:10:00,55.0,51.5,29.89,NW,310,2.0,2.0,88,0.00,,,0.00,Wunderground v.1.15,2013-09-26 03:10:00,
2013-09-26 00:20:00,54.9,51.4,29.89,NW,316,2.0,2.0,88,0.00,,,0.00,Wunderground v.1.15,2013-09-26 03:20:00,
2013-09-26 00:30:00,55.0,51.5,29.89,NW,304,2.0,15.0,88,0.00,,,0.00,Wunderground v.1.15,2013-09-26 03:30:00,
2013-09-26 00:40:00,55.1,51.9,29.90,NW,309,2.0,2.0,89,0.00,,,0.00,Wunderground v.1.15,2013-09-26 03:40:00,
2013-09-26 00:50:00,55.1,51.9,29.90,NW,308,2.0,2.0,89,0.00,,,0.00,Wunderground v.1.15,2013-09-26 03:50:00,
2013-09-26 01:00:00,55.3,52.1,29.89,NW,323,2.0,15.0,89,0.00,,,0.00,Wunderground v.1.15,2013-09-26 04:00:00,
2013-09-26 01:10:00,55.4,52.2,29.89,NW,314,2.0,15.0,89,0.00,,,0.00,Wunderground v.1.15,2013-09-26 04:10:00,
2013-09-26 01:20:00,55.5,52.0,29.89,NW,316,2.0,2.0,88,0.00,,,0.00,Wunderground v.1.15,2013-09-26 04:20:00,
2013-09-26 01:30:00,55.3,51.8,29.89,NW,316,2.0,2.0,88,0.00,,,0.00,Wunderground v.1.15,2013-09-26 04:30:00,
2013-09-26 01:40:00,55.3,51.8,29.90,NW,315,2.0,15.0,88,0.00,,,0.00,Wunderground v.1.15,2013-09-26 04:40:00,
2013-09-26 01:50:00,55.3,51.8,29.90,WNW,301,2.0,2.0,88,0.00,,,0.00,Wunderground v.1.15,2013-09-26 04:50:00,
2013-09-26 02:00:00,55.2,51.7,29.90,WSW,256,2.0,15.0,88,0.00,,,0.00,Wunderground v.1.15,2013-09-26 05:00:00,
2013-09-26 02:10:00,55.2,51.4,29.90,WNW,298,2.0,2.0,87,0.00,,,0.00,Wunderground v.1.15,2013-09-26 05:10:00,
2013-09-26 02:20:00,55.3,51.8,29.90,WNW,300,2.0,15.0,88,0.00,,,0.00,Wunderground v.1.15,2013-09-26 05:20:00,
2013-09-26 02:30:00,55.3,51.5,29.90,NW,316,2.0,15.0,87,0.00,,,0.00,Wunderground v.1.15,2013-09-26 05:30:00,
2013-09-26 02:40:00,55.3,51.8,29.89,NW,319,2.0,2.0,88,0.00,,,0.00,Wunderground v.1.15,2013-09-26 05:40:00,
2013-09-26 02:50:00,55.3,51.8,29.89,WNW,302,2.0,15.0,88,0.00,,,0.00,Wunderground v.1.15,2013-09-26 05:50:00,
2013-09-26 03:00:00,55.2,52.0,29.90,NNW,335,1.0,1.0,89,0.00,,,0.00,Wunderground v.1.15,2013-09-26 06:00:00,
2013-09-26 03:10:00,55.2,52.0,29.90,NW,304,2.0,2.0,89,0.00,,,0.00,Wunderground v.1.15,2013-09-26 06:10:00,
2013-09-26 03:20:00,55.4,52.2,29.90,WNW,293,2.0,15.0,89,0.00,,,0.00,Wunderground v.1.15,2013-09-26 06:20:00,
2013-09-26 03:30:00,55.7,52.8,29.89,NW,308,2.0,15.0,90,0.00,,,0.00,Wunderground v.1.15,2013-09-26 06:30:00,
2013-09-26 03:40:00,55.8,52.9,29.89,NW,307,2.0,15.0,90,0.00,,,0.00,Wunderground v.1.15,2013-09-26 06:40:00,
2013-09-26 03:50:00,55.6,53.0,29.89,WNW,290,2.0,2.0,91,0.00,,,0.00,Wunderground v.1.15,2013-09-26 06:50:00,
2013-09-26 04:00:00,55.4,53.1,29.89,NW,323,2.0,2.0,92,0.00,,,0.00,Wunderground v.1.15,2013-09-26 07:00:00,
2013-09-26 04:10:00,55.3,53.3,29.89,WNW,284,2.0,2.0,93,0.00,,,0.01,Wunderground v.1.15,2013-09-26 07:10:00,
2013-09-26 04:20:00,54.9,53.2,29.89,NNW,327,2.0,2.0,94,0.07,,,0.02,Wunderground v.1.15,2013-09-26 07:20:00,
2013-09-26 04:30:00,54.9,53.5,29.89,WNW,297,1.0,1.0,95,0.00,,,0.02,Wunderground v.1.15,2013-09-26 07:30:00,
2013-09-26 04:40:00,55.1,53.7,29.89,North,8,3.0,3.0,95,0.00,,,0.02,Wunderground v.1.15,2013-09-26 07:40:00,
2013-09-26 04:50:00,55.1,53.7,29.89,West,273,3.0,3.0,95,0.00,,,0.02,Wunderground v.1.15,2013-09-26 07:50:00,
2013-09-26 05:00:00,55.1,53.7,29.89,NW,315,3.0,15.0,95,0.00,,,0.02,Wunderground v.1.15,2013-09-26 08:00:00,
2013-09-26 05:10:00,55.0,53.3,29.89,North,359,3.0,15.0,94,0.00,,,0.02,Wunderground v.1.15,2013-09-26 08:10:00,
2013-09-26 05:20:00,54.5,52.8,29.90,NW,308,3.0,15.0,94,0.00,,,0.02,Wunderground v.1.15,2013-09-26 08:20:00,
2013-09-26 05:30:00,54.6,53.2,29.90,WNW,295,2.0,2.0,95,0.00,,,0.02,Wunderground v.1.15,2013-09-26 08:30:00,
2013-09-26 05:40:00,54.8,53.7,29.90,West,263,2.0,15.0,96,0.00,,,0.03,Wunderground v.1.15,2013-09-26 08:40:00,
2013-09-26 05:50:00,54.9,53.8,29.90,West,273,2.0,2.0,96,0.00,,,0.03,Wunderground v.1.15,2013-09-26 08:50:00,
2013-09-26 06:00:00,54.9,53.8,29.90,North,357,3.0,3.0,96,0.12,,,0.06,Wunderground v.1.15,2013-09-26 09:00:00,
2013-09-26 06:10:00,54.8,53.7,29.90,NW,308,3.0,3.0,96,0.06,,,0.06,Wunderground v.1.15,2013-09-26 09:10:00,
2013-09-26 06:20:00,54.9,53.8,29.90,WNW,284,3.0,15.0,96,0.00,,,0.06,Wunderground v.1.15,2013-09-26 09:20:00,
2013-09-26 06:30:00,54.9,53.8,29.90,WNW,297,3.0,15.0,96,0.00,,,0.06,Wunderground v.1.15,2013-09-26 09:30:00,
2013-09-26 06:40:00,54.8,53.7,29.90,NW,310,2.0,15.0,96,0.00,,,0.06,Wunderground v.1.15,2013-09-26 09:40:00,
2013-09-26 06:50:00,54.7,53.6,29.91,NW,316,3.0,15.0,96,0.00,,,0.06,Wunderground v.1.15,2013-09-26 09:50:00,
2013-09-26 07:00:00,54.7,53.6,29.91,NW,325,3.0,3.0,96,0.00,,,0.06,Wunderground v.1.15,2013-09-26 10:00:00,
2013-09-26 07:10:00,54.6,53.5,29.91,NNW,333,3.0,15.0,96,0.00,,,0.06,Wunderground v.1.15,2013-09-26 10:10:00,
2013-09-26 07:20:00,54.5,53.4,29.91,WNW,301,3.0,3.0,96,0.00,,,0.06,Wunderground v.1.15,2013-09-26 10:20:00,
2013-09-26 07:30:00,54.4,53.3,29.91,WNW,302,3.0,15.0,96,0.00,,,0.06,Wunderground v.1.15,2013-09-26 10:30:00,
2013-09-26 07:40:00,54.6,53.5,29.92,NW,314,3.0,15.0,96,0.00,,,0.06,Wunderground v.1.15,2013-09-26 10:40:00,
2013-09-26 07:50:00,54.6,53.5,29.92,NW,304,3.0,3.0,96,0.00,,,0.06,Wunderground v.1.15,2013-09-26 10:50:00,
2013-09-26 08:00:00,54.5,53.4,29.92,West,270,4.0,4.0,96,0.00,,,0.06,Wunderground v.1.15,2013-09-26 11:00:00,
2013-09-26 08:10:00,54.7,53.6,29.93,NW,308,2.0,15.0,96,0.00,,,0.06,Wunderground v.1.15,2013-09-26 11:10:00,
2013-09-26 08:20:00,54.7,53.6,29.93,WNW,287,4.0,4.0,96,0.00,,,0.06,Wunderground v.1.15,2013-09-26 11:20:00,
2013-09-26 08:30:00,54.7,53.6,29.93,WNW,302,3.0,3.0,96,0.00,,,0.06,Wunderground v.1.15,2013-09-26 11:30:00,
2013-09-26 08:40:00,54.7,53.6,29.93,NW,320,3.0,15.0,96,0.00,,,0.07,Wunderground v.1.15,2013-09-26 11:40:00,
2013-09-26 08:50:00,54.9,53.8,29.93,NNW,338,3.0,15.0,96,0.00,,,0.07,Wunderground v.1.15,2013-09-26 11:50:00,
2013-09-26 09:00:00,54.9,53.8,29.94,NNW,328,4.0,4.0,96,0.04,,,0.08,Wunderground v.1.15,2013-09-26 12:00:00,
2013-09-26 09:10:00,54.9,53.8,29.94,WNW,286,3.0,15.0,96,0.04,,,0.08,Wunderground v.1.15,2013-09-26 12:10:00,
2013-09-26 09:20:00,54.9,53.8,29.94,WNW,301,4.0,15.0,96,0.00,,,0.09,Wunderground v.1.15,2013-09-26 12:20:00,
2013-09-26 09:30:00,54.7,53.6,29.95,WNW,290,4.0,4.0,96,0.00,,,0.09,Wunderground v.1.15,2013-09-26 12:30:00,
2013-09-26 09:40:00,54.7,53.6,29.95,NW,320,5.0,5.0,96,0.00,,,0.09,Wunderground v.1.15,2013-09-26 12:40:00,
2013-09-26 09:50:00,54.6,53.5,29.95,ESE,120,5.0,5.0,96,0.00,,,0.09,Wunderground v.1.15,2013-09-26 12:50:00,
2013-09-26 09:55:00,54.6,53.5,29.94,NW,320,5.0,7.0,96,0.00,,,0.09,Wunderground v.1.15,2013-09-26 12:55:00,
2013-09-26 10:00:00,54.7,53.6,29.95,NW,308,4.0,15.0,96,0.00,,,0.09,Wunderground v.1.15,2013-09-26 13:00:00,
2013-09-26 10:05:00,54.7,53.6,29.95,NW,311,4.0,15.0,96,0.00,,,0.09,Wunderground v.1.15,2013-09-26 13:05:00,
2013-09-26 10:15:00,54.8,53.7,29.95,WNW,302,4.0,15.0,96,0.00,,,0.09,Wunderground v.1.15,2013-09-26 13:15:00,
2013-09-26 10:20:00,54.9,53.8,29.95,NNW,333,4.0,15.0,96,0.00,,,0.09,Wunderground v.1.15,2013-09-26 13:20:00,
2013-09-26 10:25:00,54.7,53.6,29.95,WNW,295,4.0,15.0,96,0.00,,,0.10,Wunderground v.1.15,2013-09-26 13:25:00,
2013-09-26 10:30:00,54.7,53.6,29.95,NW,307,4.0,4.0,96,0.00,,,0.10,Wunderground v.1.15,2013-09-26 13:30:00,
2013-09-26 10:35:00,54.7,53.6,29.95,North,5,4.0,15.0,96,0.00,,,0.10,Wunderground v.1.15,2013-09-26 13:35:00,
2013-09-26 10:40:00,54.7,53.6,29.96,NW,311,4.0,15.0,96,0.00,,,0.10,Wunderground v.1.15,2013-09-26 13:40:00,
2013-09-26 10:45:00,54.8,53.7,29.95,NW,313,4.0,15.0,96,0.00,,,0.10,Wunderground v.1.15,2013-09-26 13:45:00,
2013-09-26 10:50:00,54.8,53.7,29.96,NW,314,4.0,15.0,96,0.00,,,0.11,Wunderground v.1.15,2013-09-26 13:50:00,
2013-09-26 10:55:00,54.8,54.0,29.96,WNW,294,4.0,15.0,97,0.00,,,0.11,Wunderground v.1.15,2013-09-26 13:55:00,
2013-09-26 11:00:00,54.7,53.6,29.96,North,360,4.0,15.0,96,0.04,,,0.12,Wunderground v.1.15,2013-09-26 14:00:00,
2013-09-26 11:05:00,54.7,53.6,29.97,NW,314,5.0,15.0,96,0.04,,,0.12,Wunderground v.1.15,2013-09-26 14:05:00,
2013-09-26 11:10:00,54.6,53.5,29.97,NW,308,4.0,15.0,96,0.04,,,0.12,Wunderground v.1.15,2013-09-26 14:10:00,
2013-09-26 11:20:00,54.8,54.0,29.97,NW,307,4.0,4.0,97,0.00,,,0.12,Wunderground v.1.15,2013-09-26 14:20:00,
2013-09-26 11:25:00,54.6,53.5,29.97,NW,311,4.0,6.0,96,0.00,,,0.13,Wunderground v.1.15,2013-09-26 14:25:00,
2013-09-26 11:30:00,54.6,53.8,29.97,NNW,327,5.0,5.0,97,0.00,,,0.13,Wunderground v.1.15,2013-09-26 14:30:00,
2013-09-26 11:35:00,54.6,53.5,29.97,NW,310,4.0,6.0,96,0.00,,,0.13,Wunderground v.1.15,2013-09-26 14:35:00,
2013-09-26 11:40:00,54.6,53.8,29.98,WNW,298,5.0,5.0,97,0.00,,,0.13,Wunderground v.1.15,2013-09-26 14:40:00,
2013-09-26 11:45:00,54.7,53.9,29.98,North,349,4.0,15.0,97,0.00,,,0.13,Wunderground v.1.15,2013-09-26 14:45:00,
2013-09-26 11:55:00,54.7,53.6,29.98,NW,309,5.0,15.0,96,0.00,,,0.13,Wunderground v.1.15,2013-09-26 14:55:00,
2013-09-26 12:00:00,54.7,53.9,29.98,NW,321,5.0,15.0,97,0.00,,,0.13,Wunderground v.1.15,2013-09-26 15:00:00,
2013-09-26 12:05:00,54.8,54.0,29.98,North,349,5.0,15.0,97,0.00,,,0.13,Wunderground v.1.15,2013-09-26 15:05:00,
2013-09-26 12:10:00,54.9,54.1,29.98,North,5,5.0,5.0,97,0.00,,,0.13,Wunderground v.1.15,2013-09-26 15:10:00,
2013-09-26 12:15:00,54.8,53.7,29.98,NNE,15,5.0,15.0,96,0.00,,,0.13,Wunderground v.1.15,2013-09-26 15:15:00,
2013-09-26 12:25:00,54.9,53.8,29.98,NW,314,5.0,15.0,96,0.00,,,0.13,Wunderground v.1.15,2013-09-26 15:25:00,
2013-09-26 12:30:00,54.9,53.8,29.99,NW,322,4.0,15.0,96,0.00,,,0.13,Wunderground v.1.15,2013-09-26 15:30:00,
2013-09-26 12:35:00,54.9,53.8,29.99,NE,47,4.0,15.0,96,0.00,,,0.13,Wunderground v.1.15,2013-09-26 15:35:00,
2013-09-26 12:40:00,55.1,54.0,29.99,NNW,348,5.0,5.0,96,0.00,,,0.13,Wunderground v.1.15,2013-09-26 15:40:00,
2013-09-26 12:45:00,55.1,54.0,29.99,NW,323,5.0,15.0,96,0.00,,,0.13,Wunderground v.1.15,2013-09-26 15:45:00,
2013-09-26 12:50:00,54.9,53.8,29.99,NW,312,5.0,5.0,96,0.00,,,0.13,Wunderground v.1.15,2013-09-26 15:50:00,
2013-09-26 13:00:00,54.9,53.8,29.99,NW,311,4.0,15.0,96,0.00,,,0.13,Wunderground v.1.15,2013-09-26 16:00:00,
2013-09-26 13:05:00,54.7,53.6,29.99,North,4,4.0,15.0,96,0.00,,,0.13,Wunderground v.1.15,2013-09-26 16:05:00,
2013-09-26 13:10:00,54.8,53.7,29.99,NW,319,4.0,15.0,96,0.00,,,0.13,Wunderground v.1.15,2013-09-26 16:10:00,
2013-09-26 13:15:00,54.7,53.6,29.99,NW,315,4.0,15.0,96,0.00,,,0.13,Wunderground v.1.15,2013-09-26 16:15:00,
2013-09-26 13:20:00,54.6,53.5,29.99,NW,311,5.0,5.0,96,0.00,,,0.13,Wunderground v.1.15,2013-09-26 16:20:00,
2013-09-26 13:25:00,54.5,53.4,29.99,NW,324,5.0,7.0,96,0.00,,,0.13,Wunderground v.1.15,2013-09-26 16:25:00,
2013-09-26 13:30:00,54.6,53.5,29.99,NW,308,4.0,4.0,96,0.00,,,0.13,Wunderground v.1.15,2013-09-26 16:30:00,
2013-09-26 13:35:00,54.6,53.5,30.00,NW,325,4.0,15.0,96,0.00,,,0.13,Wunderground v.1.15,2013-09-26 16:35:00,
2013-09-26 13:40:00,54.5,53.4,30.00,NW,326,4.0,15.0,96,0.00,,,0.13,Wunderground v.1.15,2013-09-26 16:40:00,
2013-09-26 13:45:00,54.5,53.4,30.00,North,6,4.0,15.0,96,0.00,,,0.13,Wunderground v.1.15,2013-09-26 16:45:00,
2013-09-26 13:50:00,54.3,53.2,30.00,WNW,282,4.0,4.0,96,0.00,,,0.13,Wunderground v.1.15,2013-09-26 16:50:00,
2013-09-26 14:00:00,54.0,52.9,30.00,NW,309,4.0,4.0,96,0.00,,,0.13,Wunderground v.1.15,2013-09-26 17:00:00,
2013-09-26 14:05:00,54.1,53.0,30.00,North,8,4.0,5.0,96,0.00,,,0.13,Wunderground v.1.15,2013-09-26 17:05:00,
2013-09-26 14:10:00,54.2,53.1,30.00,NW,316,4.0,15.0,96,0.00,,,0.13,Wunderground v.1.15,2013-09-26 17:10:00,
2013-09-26 14:15:00,54.2,53.1,30.00,West,266,5.0,15.0,96,0.00,,,0.14,Wunderground v.1.15,2013-09-26 17:15:00,
2013-09-26 14:20:00,54.3,52.9,30.00,NNE,19,4.0,15.0,95,0.00,,,0.14,Wunderground v.1.15,2013-09-26 17:20:00,
2013-09-26 14:25:00,54.3,52.9,30.00,NW,316,4.0,15.0,95,0.00,,,0.14,Wunderground v.1.15,2013-09-26 17:25:00,
2013-09-26 14:35:00,54.2,52.8,30.00,West,268,4.0,15.0,95,0.00,,,0.14,Wunderground v.1.15,2013-09-26 17:35:00,
2013-09-26 14:40:00,54.3,52.9,30.00,North,356,4.0,4.0,95,0.00,,,0.14,Wunderground v.1.15,2013-09-26 17:40:00,
2013-09-26 14:45:00,54.4,53.0,30.00,NNE,12,4.0,15.0,95,0.00,,,0.14,Wunderground v.1.15,2013-09-26 17:45:00,
2013-09-26 14:50:00,54.2,52.8,30.00,WSW,243,4.0,4.0,95,0.00,,,0.14,Wunderground v.1.15,2013-09-26 17:50:00,
2013-09-26 14:55:00,54.2,52.8,30.00,NW,308,5.0,5.0,95,0.00,,,0.14,Wunderground v.1.15,2013-09-26 17:55:00,
2013-09-26 15:10:00,54.2,52.8,30.01,NW,304,4.0,15.0,95,0.00,,,0.14,Wunderground v.1.15,2013-09-26 18:10:00,
2013-09-26 15:15:00,54.2,52.8,30.01,NW,316,4.0,15.0,95,0.00,,,0.14,Wunderground v.1.15,2013-09-26 18:15:00,
2013-09-26 15:20:00,54.2,52.8,30.01,WNW,298,5.0,15.0,95,0.00,,,0.14,Wunderground v.1.15,2013-09-26 18:20:00,
2013-09-26 15:25:00,54.2,53.1,30.01,NNE,30,5.0,15.0,96,0.00,,,0.14,Wunderground v.1.15,2013-09-26 18:25:00,
2013-09-26 15:30:00,54.3,53.2,30.01,NW,319,4.0,15.0,96,0.00,,,0.14,Wunderground v.1.15,2013-09-26 18:30:00,
2013-09-26 15:40:00,53.9,52.5,30.01,WNW,293,4.0,4.0,95,0.00,,,0.14,Wunderground v.1.15,2013-09-26 18:40:00,
2013-09-26 15:45:00,53.9,52.5,30.01,NW,314,4.0,15.0,95,0.00,,,0.14,Wunderground v.1.15,2013-09-26 18:45:00,
2013-09-26 15:50:00,53.9,52.5,30.01,SW,236,4.0,4.0,95,0.00,,,0.14,Wunderground v.1.15,2013-09-26 18:50:00,
2013-09-26 15:55:00,54.0,52.6,30.01,NNW,332,4.0,5.0,95,0.00,,,0.14,Wunderground v.1.15,2013-09-26 18:55:00,
2013-09-26 16:00:00,54.0,52.6,30.01,NNW,330,4.0,15.0,95,0.00,,,0.14,Wunderground v.1.15,2013-09-26 19:00:00,
2013-09-26 16:05:00,54.1,52.7,30.01,WNW,290,4.0,15.0,95,0.00,,,0.14,Wunderground v.1.15,2013-09-26 19:05:00,
2013-09-26 16:15:00,54.1,52.7,30.01,NW,314,4.0,15.0,95,0.00,,,0.14,Wunderground v.1.15,2013-09-26 19:15:00,
2013-09-26 16:20:00,54.1,52.7,30.02,NW,308,4.0,15.0,95,0.00,,,0.14,Wunderground v.1.15,2013-09-26 19:20:00,
2013-09-26 16:25:00,54.0,52.6,30.01,NE,56,4.0,15.0,95,0.00,,,0.14,Wunderground v.1.15,2013-09-26 19:25:00,
2013-09-26 16:30:00,53.9,52.5,30.01,North,352,4.0,15.0,95,0.00,,,0.14,Wunderground v.1.15,2013-09-26 19:30:00,
2013-09-26 16:35:00,53.9,52.8,30.02,WNW,301,4.0,15.0,96,0.00,,,0.14,Wunderground v.1.15,2013-09-26 19:35:00,
2013-09-26 16:40:00,53.9,52.8,30.02,WNW,301,4.0,4.0,96,0.00,,,0.14,Wunderground v.1.15,2013-09-26 19:40:00,
2013-09-26 16:45:00,53.7,52.6,30.02,NW,316,4.0,6.0,96,0.00,,,0.14,Wunderground v.1.15,2013-09-26 19:45:00,
2013-09-26 16:50:00,53.7,52.6,30.02,NW,312,4.0,4.0,96,0.00,,,0.14,Wunderground v.1.15,2013-09-26 19:50:00,
2013-09-26 16:55:00,53.8,52.7,30.02,NW,304,4.0,15.0,96,0.00,,,0.15,Wunderground v.1.15,2013-09-26 19:55:00,
2013-09-26 17:00:00,53.8,52.7,30.02,NW,304,4.0,4.0,96,0.00,,,0.15,Wunderground v.1.15,2013-09-26 20:00:00,
2013-09-26 17:05:00,53.8,52.7,30.02,NW,314,4.0,6.0,96,0.00,,,0.15,Wunderground v.1.15,2013-09-26 20:05:00,
2013-09-26 17:15:00,53.7,52.6,30.02,NW,316,4.0,6.0,96,0.00,,,0.15,Wunderground v.1.15,2013-09-26 20:15:00,
2013-09-26 17:25:00,53.8,52.7,30.03,NW,322,4.0,15.0,96,0.00,,,0.15,Wunderground v.1.15,2013-09-26 20:25:00,
2013-09-26 17:30:00,53.8,52.7,30.03,North,349,4.0,15.0,96,0.00,,,0.15,Wunderground v.1.15,2013-09-26 20:30:00,
2013-09-26 17:35:00,53.7,52.6,30.03,NW,311,4.0,15.0,96,0.00,,,0.15,Wunderground v.1.15,2013-09-26 20:35:00,
2013-09-26 17:40:00,53.7,52.6,30.03,NW,314,4.0,15.0,96,0.00,,,0.15,Wunderground v.1.15,2013-09-26 20:40:00,
2013-09-26 17:45:00,53.7,52.6,30.03,NW,321,4.0,15.0,96,0.00,,,0.15,Wunderground v.1.15,2013-09-26 20:45:00,
2013-09-26 17:55:00,53.7,52.9,30.04,WNW,300,4.0,15.0,97,0.00,,,0.16,Wunderground v.1.15,2013-09-26 20:55:00,
2013-09-26 18:00:00,53.7,52.9,30.04,WSW,243,4.0,4.0,97,0.00,,,0.16,Wunderground v.1.15,2013-09-26 21:00:00,
2013-09-26 18:05:00,53.7,52.9,30.04,NW,304,4.0,15.0,97,0.00,,,0.16,Wunderground v.1.15,2013-09-26 21:05:00,
2013-09-26 18:10:00,53.6,52.8,30.05,WNW,297,4.0,15.0,97,0.00,,,0.16,Wunderground v.1.15,2013-09-26 21:10:00,
2013-09-26 18:15:00,53.4,52.6,30.04,NE,41,5.0,15.0,97,0.00,,,0.16,Wunderground v.1.15,2013-09-26 21:15:00,
2013-09-26 18:25:00,53.5,52.7,30.05,North,349,4.0,15.0,97,0.00,,,0.16,Wunderground v.1.15,2013-09-26 21:25:00,
2013-09-26 18:35:00,53.4,52.6,30.05,NW,311,4.0,5.0,97,0.00,,,0.16,Wunderground v.1.15,2013-09-26 21:35:00,
2013-09-26 18:40:00,53.4,52.6,30.05,WNW,300,4.0,15.0,97,0.00,,,0.16,Wunderground v.1.15,2013-09-26 21:40:00,
2013-09-26 18:51:00,53.3,52.5,30.06,NW,319,5.0,5.0,97,0.00,,,0.16,Wunderground v.1.15,2013-09-26 21:51:00,
2013-09-26 19:00:00,53.4,52.3,30.06,NW,311,5.0,5.0,96,0.00,,,0.17,Wunderground v.1.15,2013-09-26 22:00:00,
2013-09-26 19:05:00,53.4,52.3,30.06,NW,319,4.0,15.0,96,0.00,,,0.17,Wunderground v.1.15,2013-09-26 22:05:00,
2013-09-26 19:10:00,53.3,52.2,30.06,North,349,4.0,15.0,96,0.00,,,0.17,Wunderground v.1.15,2013-09-26 22:10:00,
2013-09-26 19:15:00,53.3,52.2,30.06,NW,315,4.0,15.0,96,0.00,,,0.17,Wunderground v.1.15,2013-09-26 22:15:00,
2013-09-26 19:20:00,53.3,52.2,30.06,NW,309,4.0,15.0,96,0.00,,,0.17,Wunderground v.1.15,2013-09-26 22:20:00,
2013-09-26 19:30:00,53.6,52.5,30.07,NW,315,5.0,15.0,96,0.00,,,0.17,Wunderground v.1.15,2013-09-26 22:30:00,
2013-09-26 19:35:00,53.4,52.3,30.07,NW,313,5.0,15.0,96,0.00,,,0.17,Wunderground v.1.15,2013-09-26 22:35:00,
2013-09-26 19:40:00,53.4,52.3,30.07,NW,311,5.0,5.0,96,0.00,,,0.17,Wunderground v.1.15,2013-09-26 22:40:00,
2013-09-26 19:45:00,53.5,52.4,30.07,NNE,22,4.0,15.0,96,0.00,,,0.17,Wunderground v.1.15,2013-09-26 22:45:00,
2013-09-26 19:50:00,53.6,52.5,30.08,NW,312,4.0,4.0,96,0.00,,,0.17,Wunderground v.1.15,2013-09-26 22:50:00,
2013-09-26 20:00:00,53.6,52.2,30.08,NW,311,5.0,5.0,95,0.00,,,0.17,Wunderground v.1.15,2013-09-26 23:00:00,
2013-09-26 20:05:00,53.6,52.2,30.08,North,8,4.0,15.0,95,0.00,,,0.17,Wunderground v.1.15,2013-09-26 23:05:00,
2013-09-26 20:10:00,53.7,52.3,30.08,NW,316,4.0,15.0,95,0.00,,,0.17,Wunderground v.1.15,2013-09-26 23:10:00,
2013-09-26 20:15:00,53.8,52.4,30.08,NW,315,4.0,15.0,95,0.00,,,0.17,Wunderground v.1.15,2013-09-26 23:15:00,
2013-09-26 20:20:00,53.9,52.2,30.08,NW,311,5.0,5.0,94,0.00,,,0.17,Wunderground v.1.15,2013-09-26 23:20:00,
2013-09-26 20:25:00,53.8,52.1,30.08,NW,326,5.0,15.0,94,0.00,,,0.17,Wunderground v.1.15,2013-09-26 23:25:00,
2013-09-26 20:35:00,53.8,52.4,30.08,NW,319,5.0,15.0,95,0.00,,,0.17,Wunderground v.1.15,2013-09-26 23:35:00,
2013-09-26 20:40:00,53.6,52.2,30.08,WNW,302,5.0,5.0,95,0.00,,,0.17,Wunderground v.1.15,2013-09-26 23:40:00,
2013-09-26 20:45:00,53.6,52.2,30.08,NW,311,5.0,6.0,95,0.00,,,0.17,Wunderground v.1.15,2013-09-26 23:45:00,
2013-09-26 20:50:00,53.5,52.1,30.08,North,349,4.0,15.0,95,0.00,,,0.17,Wunderground v.1.15,2013-09-26 23:50:00,
2013-09-26 20:55:00,53.4,52.0,30.09,NNW,329,4.0,15.0,95,0.00,,,0.17,Wunderground v.1.15,2013-09-26 23:55:00,
2013-09-26 21:00:00,53.4,52.0,30.08,WNW,283,5.0,15.0,95,0.00,,,0.17,Wunderground v.1.15,2013-09-27 00:00:00,
2013-09-26 21:10:00,53.4,52.0,30.09,WNW,293,4.0,4.0,95,0.00,,,0.17,Wunderground v.1.15,2013-09-27 00:10:00,
2013-09-26 21:15:00,53.3,51.9,30.09,NE,34,4.0,8.0,95,0.00,,,0.17,Wunderground v.1.15,2013-09-27 00:15:00,
2013-09-26 21:20:00,53.2,51.8,30.09,NW,326,5.0,5.0,95,0.00,,,0.17,Wunderground v.1.15,2013-09-27 00:20:00,
2013-09-26 21:25:00,53.3,51.9,30.09,North,357,5.0,6.0,95,0.00,,,0.17,Wunderground v.1.15,2013-09-27 00:25:00,
2013-09-26 21:30:00,53.4,51.7,30.09,NW,326,5.0,15.0,94,0.00,,,0.17,Wunderground v.1.15,2013-09-27 00:30:00,
2013-09-26 21:40:00,53.4,51.4,30.10,WNW,293,5.0,15.0,93,0.00,,,0.17,Wunderground v.1.15,2013-09-27 00:40:00,
2013-09-26 21:45:00,53.6,51.6,30.10,NW,306,5.0,15.0,93,0.00,,,0.17,Wunderground v.1.15,2013-09-27 00:45:00,
2013-09-26 21:50:00,53.8,51.8,30.10,NW,304,5.0,5.0,93,0.00,,,0.17,Wunderground v.1.15,2013-09-27 00:50:00,
2013-09-26 21:55:00,53.9,51.6,30.11,NW,315,4.0,15.0,92,0.00,,,0.17,Wunderground v.1.15,2013-09-27 00:55:00,
2013-09-26 22:00:00,53.8,51.5,30.11,East,88,4.0,15.0,92,0.00,,,0.17,Wunderground v.1.15,2013-09-27 01:00:00,
2013-09-26 22:05:00,53.8,51.5,30.11,WNW,300,4.0,15.0,92,0.00,,,0.17,Wunderground v.1.15,2013-09-27 01:05:00,
2013-09-26 22:15:00,53.8,51.5,30.11,NW,306,4.0,5.0,92,0.00,,,0.17,Wunderground v.1.15,2013-09-27 01:15:00,
2013-09-26 22:20:00,53.9,51.6,30.11,NW,326,4.0,15.0,92,0.00,,,0.17,Wunderground v.1.15,2013-09-27 01:20:00,
2013-09-26 22:25:00,53.9,51.3,30.11,NNW,348,4.0,15.0,91,0.00,,,0.17,Wunderground v.1.15,2013-09-27 01:25:00,
2013-09-26 22:30:00,54.0,51.4,30.11,NNE,20,4.0,15.0,91,0.00,,,0.17,Wunderground v.1.15,2013-09-27 01:30:00,
2013-09-26 22:35:00,54.0,51.4,30.11,NW,305,5.0,15.0,91,0.00,,,0.17,Wunderground v.1.15,2013-09-27 01:35:00,
2013-09-26 22:45:00,54.2,51.9,30.11,NNE,27,4.0,15.0,92,0.00,,,0.17,Wunderground v.1.15,2013-09-27 01:45:00,
2013-09-26 22:50:00,54.1,51.5,30.11,WNW,297,4.0,15.0,91,0.00,,,0.17,Wunderground v.1.15,2013-09-27 01:50:00,
2013-09-26 22:55:00,54.1,51.5,30.11,NNW,342,4.0,15.0,91,0.00,,,0.17,Wunderground v.1.15,2013-09-27 01:55:00,
2013-09-26 23:00:00,54.1,51.2,30.12,North,8,5.0,15.0,90,0.00,,,0.17,Wunderground v.1.15,2013-09-27 02:00:00,
2013-09-26 23:05:00,54.1,51.5,30.11,NW,319,5.0,15.0,91,0.00,,,0.17,Wunderground v.1.15,2013-09-27 02:05:00,
2013-09-26 23:10:00,54.1,51.2,30.11,NW,304,4.0,4.0,90,0.00,,,0.17,Wunderground v.1.15,2013-09-27 02:10:00,
2013-09-26 23:20:00,54.1,51.2,30.12,NW,319,4.0,15.0,90,0.00,,,0.17,Wunderground v.1.15,2013-09-27 02:20:00,
2013-09-26 23:25:00,54.1,51.2,30.11,NW,304,4.0,15.0,90,0.00,,,0.17,Wunderground v.1.15,2013-09-27 02:25:00,
2013-09-26 23:30:00,54.1,51.2,30.12,West,277,5.0,15.0,90,0.00,,,0.17,Wunderground v.1.15,2013-09-27 02:30:00,
2013-09-26 23:35:00,54.2,51.3,30.12,NW,319,5.0,15.0,90,0.00,,,0.17,Wunderground v.1.15,2013-09-27 02:35:00,
2013-09-26 23:40:00,54.2,51.3,30.12,NW,316,4.0,15.0,90,0.00,,,0.17,Wunderground v.1.15,2013-09-27 02:40:00,
2013-09-26 23:50:00,54.3,51.4,30.12,SW,236,5.0,15.0,90,0.00,,,0.17,Wunderground v.1.15,2013-09-27 02:50:00,
2013-09-26 23:55:00,54.3,51.7,30.12,NNW,338,5.0,15.0,91,0.00,,,0.17,Wunderground v.1.15,2013-09-27 02:55:00,